GFSNIL_sfc_thetae_132.txt.gz
Theta_e
354 350 349 349 342 338 335 335 342 340 340 338 337 336 336 331 329 331 330 331 332 327
349 347 342 341 341 335 339 334 340 338 337 336 334 333 332 326 327 328 329 329 329 328
338 337 338 339 338 338 339 337 337 336 336 335 333 331 331 325 327 327 324 323 326 327
334 335 337 337 337 338 340 338 335 334 333 331 329 330 330 328 325 323 324 325 323 324
334 334 336 335 335 336 335 335 333 331 328 326 326 327 326 325 323 322 322 322 322 321
328 330 332 332 332 332 331 330 330 328 326 325 324 324 324 324 323 322 321 321 321 320
323 323 324 325 325 325 325 325 325 326 325 324 324 323 323 322 322 324 322 324 322 321
318 318 318 319 320 321 321 321 321 321 321 322 321 320 322 323 325 326 325 326 323 324
314 314 315 316 316 317 317 317 317 317 317 317 316 308 305 312 320 322 324 324 324 324
311 310 311 312 312 312 313 314 314 314 313 314 317 305 303 305 316 317 320 322 323 320
308 308 309 309 309 310 310 310 310 310 310 310 311 302 299 301 312 314 315 317 319 320
305 305 305 306 307 308 308 308 308 308 309 309 309 301 298 301 308 308 309 310 313 316
305 305 305 306 306 306 306 306 306 306 308 305 306 299 296 298 302 301 302 305 306 303
304 304 305 305 305 304 303 302 301 300 298 298 299 301 296 296 301 300 301 302 303 305

GFSNIL_sfc_thetae_135.txt.gz
Theta_e
354 353 353 357 358 349 348 348 350 347 345 342 341 343 345 337 335 342 334 338 338 328
352 351 352 357 356 350 351 340 343 341 340 339 338 338 339 334 337 336 336 334 336 329
344 348 352 350 347 345 342 338 341 338 339 338 337 337 339 335 335 334 328 326 331 332
341 340 340 339 337 339 340 337 335 335 335 335 335 336 339 336 330 329 332 332 330 329
335 336 337 336 336 337 337 336 333 332 332 331 331 333 331 328 327 327 328 328 329 327
332 333 334 334 334 333 333 332 332 330 329 328 327 327 328 328 327 328 329 328 328 328
325 326 327 327 327 328 328 327 327 328 327 327 326 326 326 326 329 329 329 329 329 328
319 321 320 320 322 323 323 323 323 323 323 323 324 322 326 327 327 327 327 328 328 328
314 315 317 317 318 319 318 319 319 318 318 321 319 309 305 310 318 322 322 322 324 325
312 312 313 314 314 315 318 319 316 316 316 318 320 306 303 304 314 316 317 319 320 320
311 310 311 311 311 315 315 316 315 314 315 315 313 302 300 301 311 313 314 315 315 316
309 309 308 308 310 312 312 313 312 312 312 313 313 302 298 299 307 308 309 310 311 309
308 307 307 308 309 309 309 309 309 309 310 307 307 300 296 296 298 298 299 302 305 303
307 307 308 308 309 308 307 305 304 303 304 303 302 299 295 296 299 301 301 301 304 306

GFSNIL_sfc_thetae_138.txt.gz
Theta_e
344 344 350 349 347 346 344 347 346 345 335 343 342 340 340 341 339 339 337 333 333 330
353 353 352 350 352 349 346 346 344 340 338 340 338 341 340 336 337 335 334 330 332 330
350 349 352 350 347 343 341 340 340 339 339 339 337 338 338 335 335 332 332 330 329 329
345 342 338 337 338 334 337 338 338 338 338 337 337 338 338 336 333 330 330 328 328 327
333 336 336 337 338 339 338 336 334 335 334 334 334 336 335 332 327 327 325 325 326 325
327 327 329 328 329 331 331 332 333 332 331 331 331 331 332 330 328 327 326 325 325 324
325 326 326 325 325 326 327 327 327 327 327 327 326 325 325 326 326 327 327 327 326 325
322 324 323 323 323 323 325 323 323 322 322 322 322 321 321 321 320 320 321 323 324 323
317 318 320 319 319 322 321 321 320 318 318 317 317 308 307 309 312 313 313 313 315 316
315 314 316 316 316 316 317 318 316 315 314 314 315 306 302 303 308 309 309 309 310 310
311 311 312 312 312 314 315 314 312 313 313 312 313 304 299 299 308 309 309 310 310 310
309 309 309 308 310 311 311 310 310 310 310 311 311 297 296 298 301 302 302 303 304 304
308 308 307 308 308 309 309 309 309 307 307 306 306 301 298 297 298 297 299 300 301 300
307 307 308 309 309 307 305 305 305 303 303 302 302 302 296 295 297 297 297 298 299 300

GFSNIL_sfc_thetae_141.txt.gz
Theta_e
331 333 334 336 329 334 339 337 335 332 336 336 326 330 331 327 332 334 331 329 327 324
336 335 336 339 337 335 335 330 335 339 336 333 330 326 329 335 334 331 330 328 326 326
335 336 336 332 328 329 325 320 320 318 327 322 332 335 333 329 330 329 327 325 323 321
331 330 330 323 321 326 321 319 322 325 330 332 330 331 331 329 329 326 323 323 321 320
322 323 323 323 325 327 329 330 331 332 331 331 330 329 328 328 329 325 322 322 322 321
320 321 320 322 323 324 324 324 322 324 324 325 326 326 328 329 327 325 324 322 320 321
312 316 315 316 316 315 316 315 315 316 319 319 319 321 321 319 317 317 318 320 321 321
309 309 309 309 310 312 312 313 315 315 315 315 315 315 310 311 309 308 309 311 312 312
307 307 307 308 307 308 309 310 310 310 311 310 313 307 307 307 306 305 306 305 307 308
307 306 305 306 305 306 306 306 306 307 307 307 307 304 299 301 302 303 302 302 303 305
305 304 303 303 302 302 303 303 303 304 304 304 306 298 297 298 298 298 299 300 301 301
304 302 302 301 301 301 301 301 301 302 301 300 300 299 297 297 297 297 297 299 300 301
302 301 300 300 300 300 299 299 301 300 300 300 297 297 296 296 297 296 296 298 298 300
300 299 297 296 296 296 295 295 295 296 296 296 297 298 296 295 296 295 295 295 295 297

GFSNIL_sfc_thetae_144.txt.gz
Theta_e
325 324 325 327 327 327 328 330 329 328 328 327 331 332 331 329 327 325 326 324 329 329
329 329 328 329 331 330 330 330 334 331 324 322 327 330 330 328 327 325 328 330 331 325
329 331 331 329 327 325 322 320 329 327 325 322 321 325 328 325 326 328 330 331 325 324
324 325 325 321 323 324 321 320 319 320 323 321 323 322 320 324 327 327 326 325 323 321
318 319 319 320 321 323 324 323 325 328 329 328 328 328 327 326 329 326 323 323 323 321
312 313 315 315 314 316 318 319 319 320 321 322 322 322 322 323 324 323 323 321 320 318
305 306 307 310 312 312 312 310 311 313 315 316 315 315 313 312 310 310 311 311 312 312
304 305 305 307 307 308 308 310 310 311 311 311 311 311 309 308 307 306 307 310 311 311
304 304 303 303 303 304 304 305 305 305 307 306 310 303 302 304 303 303 302 301 302 304
303 302 301 301 301 301 301 301 301 302 303 302 302 298 298 301 299 298 297 298 299 301
302 301 301 300 299 299 298 298 299 299 300 299 302 299 297 298 296 296 296 297 297 297
301 300 298 297 296 296 296 296 296 298 297 297 297 297 296 296 294 295 295 296 297 298
298 296 294 293 293 293 293 293 295 294 295 297 295 295 295 295 293 293 294 294 295 297
293 293 292 290 290 290 290 290 290 291 292 292 294 294 295 295 295 295 295 295 295 295

GFSNIL_sfc_thetae_147.txt.gz
Theta_e
323 324 325 324 324 324 323 324 325 325 326 326 327 327 330 326 324 323 323 319 323 321
326 325 324 325 325 325 325 330 328 328 325 325 328 330 328 327 325 324 323 323 323 323
326 328 329 328 328 328 326 326 332 331 327 324 324 324 325 322 324 322 325 326 325 326
323 324 324 322 322 320 318 319 321 325 323 322 320 319 318 319 321 324 323 324 326 325
315 316 316 317 319 321 319 321 324 328 324 326 325 323 320 320 321 322 325 327 326 325
307 308 309 309 313 312 311 311 312 314 314 315 315 317 317 314 314 315 319 320 319 319
302 303 304 305 306 307 308 307 307 308 310 310 310 310 309 308 307 307 308 308 310 310
301 301 302 303 303 304 304 304 305 306 306 305 308 306 303 303 302 302 302 303 305 305
301 301 300 300 300 301 300 301 302 302 302 302 306 300 302 300 298 298 298 297 299 301
301 300 299 300 299 298 297 297 298 298 299 298 299 298 298 300 297 296 296 295 296 297
300 299 298 297 296 295 294 294 295 296 296 296 298 299 297 298 295 294 295 295 295 295
298 296 295 293 292 291 291 291 292 293 293 293 294 296 296 295 293 293 293 295 295 296
295 293 291 289 289 289 288 290 291 291 291 293 292 294 294 294 295 293 292 293 294 297
290 290 290 288 287 287 287 287 287 288 289 290 291 294 295 295 296 295 295 295 294 295